Time,TemperatureF,DewpointF,PressureIn,WindDirection,WindDirectionDegrees,WindSpeedMPH,WindSpeedGustMPH,Humidity,HourlyPrecipIn,Conditions,Clouds,dailyrainin,SoftwareType,DateUTC
2013-03-03 00:00:00,24.3,17.2,29.96,SSE,155,0.0,5.0,74,0.00,,,0.00,meteohub,2013-03-03 05:00:00,
2013-03-03 00:05:00,24.3,17.2,29.96,East,85,1.0,4.0,74,0.00,,,0.00,meteohub,2013-03-03 05:05:00,
2013-03-03 00:10:00,24.4,17.4,29.96,ENE,77,0.0,4.0,74,0.00,,,0.00,meteohub,2013-03-03 05:10:00,
2013-03-03 00:15:00,24.4,17.1,29.96,North,353,2.0,5.0,73,0.00,,,0.00,meteohub,2013-03-03 05:15:00,
2013-03-03 00:20:00,24.4,17.4,29.96,East,84,0.0,5.0,74,0.00,,,0.00,meteohub,2013-03-03 05:20:00,
2013-03-03 00:25:00,24.3,17.2,29.96,NNE,23,4.0,5.0,74,0.00,,,0.00,meteohub,2013-03-03 05:25:00,
2013-03-03 00:30:00,24.3,17.2,29.96,ENE,58,2.0,5.0,74,0.00,,,0.00,meteohub,2013-03-03 05:30:00,
2013-03-03 00:35:00,24.3,17.2,29.96,ENE,61,2.0,4.0,74,0.00,,,0.00,meteohub,2013-03-03 05:35:00,
2013-03-03 00:41:00,24.3,17.2,29.96,NNE,32,1.0,7.0,74,0.00,,,0.00,meteohub,2013-03-03 05:41:00,
2013-03-03 00:46:00,24.1,16.7,29.96,North,352,0.0,7.0,73,0.00,,,0.00,meteohub,2013-03-03 05:46:00,
2013-03-03 00:51:00,24.1,16.7,29.96,NNW,342,1.0,7.0,73,0.00,,,0.00,meteohub,2013-03-03 05:51:00,
2013-03-03 00:56:00,24.1,16.7,29.96,NNE,26,0.0,4.0,73,0.00,,,0.00,meteohub,2013-03-03 05:56:00,
2013-03-03 01:01:00,23.9,16.5,29.96,North,8,0.0,4.0,73,0.00,,,0.00,meteohub,2013-03-03 06:01:00,
2013-03-03 01:06:00,23.7,16.3,29.96,NNW,331,2.0,3.0,73,0.00,,,0.00,meteohub,2013-03-03 06:06:00,
2013-03-03 01:11:00,23.7,16.3,29.96,NE,45,0.0,3.0,73,0.00,,,0.00,meteohub,2013-03-03 06:11:00,
2013-03-03 01:16:00,23.7,16.3,29.96,NNE,17,0.0,3.0,73,0.00,,,0.00,meteohub,2013-03-03 06:16:00,
2013-03-03 01:21:00,23.7,16.3,29.96,NNW,345,4.0,4.0,73,0.00,,,0.00,meteohub,2013-03-03 06:21:00,
2013-03-03 01:26:00,23.7,16.3,29.96,North,8,0.0,4.0,73,0.00,,,0.00,meteohub,2013-03-03 06:26:00,
2013-03-03 01:31:00,23.5,16.2,29.96,NW,323,0.0,4.0,73,0.00,,,0.00,meteohub,2013-03-03 06:31:00,
2013-03-03 01:36:00,23.5,16.5,29.96,North,11,0.0,5.0,74,0.00,,,0.00,meteohub,2013-03-03 06:36:00,
2013-03-03 01:41:00,23.5,16.2,29.96,NNW,332,1.0,5.0,73,0.00,,,0.00,meteohub,2013-03-03 06:41:00,
2013-03-03 01:46:00,23.5,16.5,29.96,NW,305,1.0,5.0,74,0.00,,,0.00,meteohub,2013-03-03 06:46:00,
2013-03-03 01:51:00,23.5,16.5,29.97,NNE,13,0.0,3.0,74,0.00,,,0.00,meteohub,2013-03-03 06:51:00,
2013-03-03 01:56:00,23.4,16.3,29.97,NW,313,0.0,3.0,74,0.00,,,0.00,meteohub,2013-03-03 06:56:00,
2013-03-03 02:01:00,23.2,16.5,29.97,North,4,0.0,2.0,75,0.00,,,0.00,meteohub,2013-03-03 07:01:00,
2013-03-03 02:06:00,22.8,16.2,29.97,NNW,333,0.0,2.0,75,0.00,,,0.00,meteohub,2013-03-03 07:06:00,
2013-03-03 02:11:00,22.8,16.2,29.96,NNE,18,0.0,2.0,75,0.00,,,0.00,meteohub,2013-03-03 07:11:00,
2013-03-03 02:16:00,22.6,16.2,29.97,NW,318,0.0,2.0,76,0.00,,,0.00,meteohub,2013-03-03 07:16:00,
2013-03-03 02:21:00,22.6,16.2,29.96,NNW,344,0.0,4.0,76,0.00,,,0.00,meteohub,2013-03-03 07:21:00,
2013-03-03 02:26:00,22.8,16.3,29.96,NNW,340,0.0,4.0,76,0.00,,,0.00,meteohub,2013-03-03 07:26:00,
2013-03-03 02:31:00,22.6,16.2,29.96,NNE,12,0.0,4.0,76,0.00,,,0.00,meteohub,2013-03-03 07:31:00,
2013-03-03 02:36:00,22.5,16.3,29.96,North,11,0.0,3.0,77,0.00,,,0.00,meteohub,2013-03-03 07:36:00,
2013-03-03 02:41:00,22.3,16.5,29.96,North,4,0.0,3.0,78,0.00,,,0.00,meteohub,2013-03-03 07:41:00,
2013-03-03 02:46:00,22.1,16.3,29.96,NNW,328,0.0,2.0,78,0.00,,,0.00,meteohub,2013-03-03 07:46:00,
2013-03-03 02:51:00,22.3,16.2,29.96,NNW,334,1.0,2.0,77,0.00,,,0.00,meteohub,2013-03-03 07:51:00,
2013-03-03 02:56:00,22.1,15.6,29.96,NNE,22,1.0,5.0,76,0.00,,,0.00,meteohub,2013-03-03 07:56:00,
2013-03-03 03:01:00,22.1,15.6,29.96,NNE,22,1.0,5.0,76,0.00,,,0.00,meteohub,2013-03-03 08:01:00,
2013-03-03 03:06:00,22.1,15.6,29.96,North,-999,-999.0,5.0,76,0.00,,,0.00,meteohub,2013-03-03 08:06:00,
2013-03-03 07:32:00,20.5,14.7,29.96,North,-999,-999.0,-999.0,78,-99.99,,,0.00,meteohub,2013-03-03 12:32:00,
2013-03-03 07:37:00,21.0,15.3,29.97,North,-999,-999.0,-999.0,78,0.00,,,0.00,meteohub,2013-03-03 12:37:00,
2013-03-03 07:42:00,21.4,15.3,29.97,NE,41,0.0,1.0,77,0.00,,,0.00,meteohub,2013-03-03 12:42:00,
2013-03-03 07:47:00,21.9,15.3,29.98,SE,131,0.0,2.0,75,0.00,,,0.00,meteohub,2013-03-03 12:47:00,
2013-03-03 07:52:00,22.5,15.8,29.98,East,91,0.0,2.0,75,0.00,,,0.00,meteohub,2013-03-03 12:52:00,
2013-03-03 07:57:00,22.5,15.4,29.98,East,92,0.0,4.0,74,0.00,,,0.00,meteohub,2013-03-03 12:57:00,
2013-03-03 08:02:00,22.6,15.6,29.98,SSW,193,0.0,4.0,74,0.00,,,0.00,meteohub,2013-03-03 13:02:00,
2013-03-03 08:07:00,22.8,16.2,29.98,NNW,329,0.0,2.0,75,0.00,,,0.00,meteohub,2013-03-03 13:07:00,
2013-03-03 08:12:00,22.8,15.8,29.99,SE,139,0.0,2.0,74,0.00,,,0.00,meteohub,2013-03-03 13:12:00,
2013-03-03 08:17:00,23.4,16.3,29.99,NW,321,1.0,2.0,74,0.00,,,0.00,meteohub,2013-03-03 13:17:00,
2013-03-03 08:22:00,23.2,15.8,29.99,North,10,1.0,7.0,73,0.00,,,0.00,meteohub,2013-03-03 13:22:00,
2013-03-03 08:27:00,23.5,15.8,29.99,ENE,76,1.0,7.0,72,0.00,,,0.00,meteohub,2013-03-03 13:27:00,
2013-03-03 08:32:00,24.3,16.0,29.99,NW,304,4.0,7.0,70,0.00,,,0.00,meteohub,2013-03-03 13:32:00,
2013-03-03 08:37:00,24.4,15.8,30.00,NE,42,2.0,7.0,69,0.00,,,0.00,meteohub,2013-03-03 13:37:00,
2013-03-03 08:42:00,24.6,16.0,30.00,East,89,1.0,7.0,69,0.00,,,0.00,meteohub,2013-03-03 13:42:00,
2013-03-03 08:47:00,24.6,15.3,30.00,NE,51,4.0,9.0,67,0.00,,,0.00,meteohub,2013-03-03 13:47:00,
2013-03-03 08:52:00,24.3,14.9,29.99,East,98,3.0,9.0,67,0.00,,,0.00,meteohub,2013-03-03 13:52:00,
2013-03-03 08:57:00,24.6,15.3,29.99,East,89,2.0,9.0,67,0.00,,,0.00,meteohub,2013-03-03 13:57:00,
2013-03-03 09:02:00,25.0,15.3,30.00,NE,41,4.0,9.0,66,0.00,,,0.00,meteohub,2013-03-03 14:02:00,
2013-03-03 09:07:00,25.2,15.1,30.00,NW,324,0.0,9.0,65,0.00,,,0.00,meteohub,2013-03-03 14:07:00,
2013-03-03 09:12:00,25.5,14.7,30.00,NE,36,5.0,8.0,63,0.00,,,0.00,meteohub,2013-03-03 14:12:00,
2013-03-03 09:17:00,25.5,14.7,30.00,North,6,5.0,8.0,63,0.00,,,0.00,meteohub,2013-03-03 14:17:00,
2013-03-03 09:22:00,25.9,14.7,30.00,NNE,29,4.0,7.0,62,0.00,,,0.00,meteohub,2013-03-03 14:22:00,
2013-03-03 09:27:00,25.9,14.7,30.00,NNW,346,1.0,7.0,62,0.00,,,0.00,meteohub,2013-03-03 14:27:00,
2013-03-03 09:32:00,26.4,14.4,30.00,NW,304,0.0,8.0,60,0.00,,,0.00,meteohub,2013-03-03 14:32:00,
2013-03-03 09:37:00,27.1,15.4,30.00,SE,136,1.0,8.0,61,0.00,,,0.00,meteohub,2013-03-03 14:37:00,
2013-03-03 09:42:00,28.0,15.3,30.00,NNW,330,4.0,6.0,58,0.00,,,0.00,meteohub,2013-03-03 14:42:00,
2013-03-03 09:47:00,28.0,14.7,30.00,NNE,22,0.0,6.0,57,0.00,,,0.00,meteohub,2013-03-03 14:47:00,
2013-03-03 09:52:00,28.6,14.0,30.00,NE,55,2.0,5.0,54,0.00,,,0.00,meteohub,2013-03-03 14:52:00,
2013-03-03 09:57:00,28.0,14.0,30.00,NW,311,1.0,6.0,55,0.00,,,0.00,meteohub,2013-03-03 14:57:00,
2013-03-03 10:02:00,27.9,13.5,30.00,SE,129,2.0,7.0,54,0.00,,,0.00,meteohub,2013-03-03 15:02:00,
2013-03-03 10:07:00,28.6,14.5,30.00,NNE,13,3.0,7.0,55,0.00,,,0.00,meteohub,2013-03-03 15:07:00,
2013-03-03 10:12:00,28.9,14.0,30.00,ENE,76,3.0,7.0,53,0.00,,,0.00,meteohub,2013-03-03 15:12:00,
2013-03-03 10:17:00,28.6,13.6,30.00,East,81,3.0,7.0,53,0.00,,,0.00,meteohub,2013-03-03 15:17:00,
2013-03-03 10:22:00,28.6,13.6,30.00,NNW,345,5.0,7.0,53,0.00,,,0.00,meteohub,2013-03-03 15:22:00,
2013-03-03 10:27:00,28.2,13.3,30.00,NE,51,2.0,9.0,53,0.00,,,0.00,meteohub,2013-03-03 15:27:00,
2013-03-03 10:32:00,28.2,13.6,30.00,NW,308,4.0,9.0,54,0.00,,,0.00,meteohub,2013-03-03 15:32:00,
2013-03-03 10:37:00,28.9,14.0,29.99,WNW,293,0.0,9.0,53,0.00,,,0.00,meteohub,2013-03-03 15:37:00,
2013-03-03 10:42:00,30.0,14.0,29.99,East,82,3.0,9.0,51,0.00,,,0.00,meteohub,2013-03-03 15:42:00,
2013-03-03 10:47:00,30.0,14.0,30.00,WNW,285,0.0,8.0,51,0.00,,,0.00,meteohub,2013-03-03 15:47:00,
2013-03-03 10:52:00,29.7,13.3,29.99,North,8,5.0,9.0,50,0.00,,,0.00,meteohub,2013-03-03 15:52:00,
2013-03-03 10:57:00,29.7,13.8,29.99,NNW,343,5.0,9.0,51,0.00,,,0.00,meteohub,2013-03-03 15:57:00,
2013-03-03 11:02:00,30.0,13.1,30.00,North,11,3.0,8.0,49,0.00,,,0.00,meteohub,2013-03-03 16:02:00,
2013-03-03 11:07:00,30.4,13.1,30.00,NNW,335,0.0,8.0,48,0.00,,,0.00,meteohub,2013-03-03 16:07:00,
2013-03-03 11:12:00,30.7,12.9,30.00,South,172,3.0,8.0,47,0.00,,,0.00,meteohub,2013-03-03 16:12:00,
2013-03-03 11:17:00,31.6,13.3,29.99,NNE,12,5.0,6.0,46,0.00,,,0.00,meteohub,2013-03-03 16:17:00,
2013-03-03 11:22:00,30.9,12.6,29.99,NE,41,5.0,7.0,46,0.00,,,0.00,meteohub,2013-03-03 16:22:00,
2013-03-03 11:27:00,30.9,13.1,29.99,East,98,5.0,10.0,47,0.00,,,0.00,meteohub,2013-03-03 16:27:00,
2013-03-03 11:32:00,31.3,12.9,30.00,East,98,4.0,10.0,46,0.00,,,0.00,meteohub,2013-03-03 16:32:00,
2013-03-03 11:37:00,31.6,13.6,30.00,ENE,78,3.0,9.0,47,0.00,,,0.00,meteohub,2013-03-03 16:37:00,
2013-03-03 11:42:00,32.9,13.8,30.00,NW,310,2.0,9.0,45,0.00,,,0.00,meteohub,2013-03-03 16:42:00,
2013-03-03 11:47:00,32.7,13.6,30.00,WNW,301,4.0,7.0,45,0.00,,,0.00,meteohub,2013-03-03 16:47:00,
2013-03-03 11:52:00,33.1,14.0,29.99,ENE,61,1.0,7.0,45,0.00,,,0.00,meteohub,2013-03-03 16:52:00,
2013-03-03 11:57:00,34.0,14.4,29.99,ENE,74,0.0,9.0,44,0.00,,,0.00,meteohub,2013-03-03 16:57:00,
2013-03-03 12:02:00,33.4,13.8,29.99,ENE,74,0.0,9.0,44,0.00,,,0.00,meteohub,2013-03-03 17:02:00,
2013-03-03 12:07:00,33.1,13.5,29.99,WNW,287,1.0,9.0,44,0.00,,,0.00,meteohub,2013-03-03 17:07:00,
2013-03-03 12:12:00,33.1,13.5,29.99,NNW,335,1.0,9.0,44,0.00,,,0.00,meteohub,2013-03-03 17:12:00,
2013-03-03 12:17:00,33.4,14.4,29.99,ENE,75,1.0,9.0,45,0.00,,,0.00,meteohub,2013-03-03 17:17:00,
2013-03-03 12:22:00,33.8,13.6,29.98,ENE,64,8.0,8.0,43,0.00,,,0.00,meteohub,2013-03-03 17:22:00,
2013-03-03 12:27:00,33.6,13.5,29.98,North,8,4.0,9.0,43,0.00,,,0.00,meteohub,2013-03-03 17:27:00,
2013-03-03 12:32:00,34.2,15.1,29.98,NE,48,2.0,9.0,45,0.00,,,0.00,meteohub,2013-03-03 17:32:00,
2013-03-03 12:37:00,35.1,14.9,29.98,NE,44,1.0,9.0,43,0.00,,,0.00,meteohub,2013-03-03 17:37:00,
2013-03-03 12:42:00,34.9,14.7,29.98,NNE,13,5.0,9.0,43,0.00,,,0.00,meteohub,2013-03-03 17:42:00,
2013-03-03 12:47:00,34.5,14.4,29.97,East,84,2.0,9.0,43,0.00,,,0.00,meteohub,2013-03-03 17:47:00,
2013-03-03 12:52:00,35.1,14.9,29.97,ESE,106,2.0,10.0,43,0.00,,,0.00,meteohub,2013-03-03 17:52:00,
2013-03-03 12:57:00,35.4,14.5,29.97,East,89,5.0,10.0,42,0.00,,,0.00,meteohub,2013-03-03 17:57:00,
2013-03-03 13:02:00,34.9,15.3,29.97,ENE,60,4.0,7.0,44,0.00,,,0.00,meteohub,2013-03-03 18:02:00,
2013-03-03 13:07:00,34.9,14.7,29.97,East,98,2.0,7.0,43,0.00,,,0.00,meteohub,2013-03-03 18:07:00,
2013-03-03 13:12:00,35.2,14.9,29.97,SE,129,5.0,7.0,43,0.00,,,0.00,meteohub,2013-03-03 18:12:00,
2013-03-03 13:17:00,36.3,14.9,29.97,ESE,103,2.0,8.0,41,0.00,,,0.00,meteohub,2013-03-03 18:17:00,
2013-03-03 13:22:00,36.3,14.9,29.96,East,94,2.0,8.0,41,0.00,,,0.00,meteohub,2013-03-03 18:22:00,
2013-03-03 13:27:00,37.6,16.5,29.97,NW,319,1.0,8.0,42,0.00,,,0.00,meteohub,2013-03-03 18:27:00,
2013-03-03 13:32:00,38.8,16.0,29.96,SSW,203,1.0,8.0,39,0.00,,,0.00,meteohub,2013-03-03 18:32:00,
2013-03-03 13:37:00,39.4,15.8,29.96,North,354,4.0,8.0,38,0.00,,,0.00,meteohub,2013-03-03 18:37:00,
2013-03-03 13:42:00,37.9,15.3,29.96,East,81,6.0,6.0,39,0.00,,,0.00,meteohub,2013-03-03 18:42:00,
2013-03-03 13:47:00,37.6,16.0,29.96,East,98,4.0,8.0,41,0.00,,,0.00,meteohub,2013-03-03 18:47:00,
2013-03-03 13:52:00,37.2,15.6,29.96,NNW,342,2.0,8.0,41,0.00,,,0.00,meteohub,2013-03-03 18:52:00,
2013-03-03 13:57:00,37.4,15.8,29.96,East,98,7.0,8.0,41,0.00,,,0.00,meteohub,2013-03-03 18:57:00,
2013-03-03 14:02:00,36.9,15.4,29.95,East,101,5.0,8.0,41,0.00,,,0.00,meteohub,2013-03-03 19:02:00,
2013-03-03 14:07:00,36.9,16.0,29.95,East,93,1.0,8.0,42,0.00,,,0.00,meteohub,2013-03-03 19:07:00,
2013-03-03 14:12:00,37.6,16.5,29.94,East,98,9.0,9.0,42,0.00,,,0.00,meteohub,2013-03-03 19:12:00,
2013-03-03 14:17:00,38.1,16.0,29.94,WNW,300,0.0,9.0,40,0.00,,,0.00,meteohub,2013-03-03 19:17:00,
2013-03-03 14:22:00,38.7,17.1,29.94,NNW,338,3.0,9.0,41,0.00,,,0.00,meteohub,2013-03-03 19:22:00,
2013-03-03 14:27:00,38.8,17.1,29.94,ESE,114,3.0,9.0,41,0.00,,,0.00,meteohub,2013-03-03 19:27:00,
2013-03-03 14:32:00,37.8,17.2,29.95,NE,51,0.0,10.0,43,0.00,,,0.00,meteohub,2013-03-03 19:32:00,
2013-03-03 14:37:00,37.4,16.9,29.94,NE,49,3.0,11.0,43,0.00,,,0.00,meteohub,2013-03-03 19:37:00,
2013-03-03 14:42:00,37.0,17.1,29.95,NNW,333,2.0,11.0,44,0.00,,,0.00,meteohub,2013-03-03 19:42:00,
2013-03-03 14:47:00,36.9,17.1,29.94,NNE,20,7.0,11.0,44,0.00,,,0.00,meteohub,2013-03-03 19:47:00,
2013-03-03 14:52:00,37.0,17.1,29.95,NE,47,6.0,11.0,44,0.00,,,0.00,meteohub,2013-03-03 19:52:00,
2013-03-03 14:57:00,36.9,17.1,29.94,WNW,296,0.0,12.0,44,0.00,,,0.00,meteohub,2013-03-03 19:57:00,
2013-03-03 15:02:00,37.4,17.4,29.95,SSW,204,1.0,12.0,44,0.00,,,0.00,meteohub,2013-03-03 20:02:00,
2013-03-03 15:07:00,37.2,17.2,29.95,NE,41,7.0,12.0,44,0.00,,,0.00,meteohub,2013-03-03 20:07:00,
2013-03-03 15:12:00,36.9,17.1,29.95,ENE,74,7.0,13.0,44,0.00,,,0.00,meteohub,2013-03-03 20:12:00,
2013-03-03 15:17:00,36.9,17.4,29.95,NNE,23,6.0,13.0,45,0.00,,,0.00,meteohub,2013-03-03 20:17:00,
2013-03-03 15:22:00,36.7,17.4,29.95,NNW,335,8.0,13.0,45,0.00,,,0.00,meteohub,2013-03-03 20:22:00,
2013-03-03 15:27:00,36.5,17.6,29.95,NNE,17,5.0,13.0,46,0.00,,,0.00,meteohub,2013-03-03 20:27:00,
2013-03-03 15:32:00,36.9,18.0,29.96,NNE,25,6.0,13.0,46,0.00,,,0.00,meteohub,2013-03-03 20:32:00,
2013-03-03 15:37:00,36.9,18.5,29.96,ENE,69,4.0,13.0,47,0.00,,,0.00,meteohub,2013-03-03 20:37:00,
2013-03-03 15:42:00,36.5,18.1,29.96,NE,46,6.0,12.0,47,0.00,,,0.00,meteohub,2013-03-03 20:42:00,
2013-03-03 15:47:00,36.5,18.1,29.95,NNW,346,5.0,12.0,47,0.00,,,0.00,meteohub,2013-03-03 20:47:00,
2013-03-03 15:52:00,36.7,18.3,29.96,NNW,330,3.0,12.0,47,0.00,,,0.00,meteohub,2013-03-03 20:52:00,
2013-03-03 15:57:00,36.7,18.3,29.96,NNE,30,9.0,12.0,47,0.00,,,0.00,meteohub,2013-03-03 20:57:00,
2013-03-03 16:02:00,36.1,18.3,29.96,NNW,343,9.0,10.0,48,0.00,,,0.00,meteohub,2013-03-03 21:02:00,
2013-03-03 16:07:00,35.8,18.0,29.96,NNE,22,4.0,12.0,48,0.00,,,0.00,meteohub,2013-03-03 21:07:00,
2013-03-03 16:12:00,36.1,18.3,29.96,NNW,342,6.0,12.0,48,0.00,,,0.00,meteohub,2013-03-03 21:12:00,
2013-03-03 16:17:00,36.0,18.1,29.96,NE,40,5.0,12.0,48,0.00,,,0.00,meteohub,2013-03-03 21:17:00,
2013-03-03 16:22:00,35.8,18.5,29.96,NNE,26,8.0,11.0,49,0.00,,,0.00,meteohub,2013-03-03 21:22:00,
2013-03-03 16:27:00,35.4,18.7,29.96,NE,39,5.0,13.0,50,0.00,,,0.00,meteohub,2013-03-03 21:27:00,
2013-03-03 16:32:00,35.6,18.9,29.96,WNW,298,1.0,13.0,50,0.00,,,0.00,meteohub,2013-03-03 21:32:00,
2013-03-03 16:37:00,35.4,18.7,29.96,NNW,343,8.0,11.0,50,0.00,,,0.00,meteohub,2013-03-03 21:37:00,
2013-03-03 16:42:00,35.2,18.5,29.96,NE,39,3.0,12.0,50,0.00,,,0.00,meteohub,2013-03-03 21:42:00,
2013-03-03 16:47:00,35.2,18.5,29.96,NNE,25,6.0,12.0,50,0.00,,,0.00,meteohub,2013-03-03 21:47:00,
2013-03-03 16:52:00,34.9,18.1,29.97,NNW,330,6.0,11.0,50,0.00,,,0.00,meteohub,2013-03-03 21:52:00,
2013-03-03 16:57:00,34.5,18.3,29.97,NE,43,5.0,11.0,51,0.00,,,0.00,meteohub,2013-03-03 21:57:00,
2013-03-03 17:02:00,34.3,17.6,29.97,NNE,19,1.0,11.0,50,0.00,,,0.00,meteohub,2013-03-03 22:02:00,
2013-03-03 17:07:00,34.3,17.6,29.97,NNW,331,6.0,11.0,50,0.00,,,0.00,meteohub,2013-03-03 22:07:00,
2013-03-03 17:12:00,34.0,17.2,29.97,NE,50,9.0,11.0,50,0.00,,,0.00,meteohub,2013-03-03 22:12:00,
2013-03-03 17:17:00,33.4,17.2,29.97,NNW,346,6.0,11.0,51,0.00,,,0.00,meteohub,2013-03-03 22:17:00,
2013-03-03 17:22:00,33.4,17.2,29.97,East,96,11.0,11.0,51,0.00,,,0.00,meteohub,2013-03-03 22:22:00,
2013-03-03 17:27:00,33.3,17.1,29.98,NNW,347,6.0,11.0,51,0.00,,,0.00,meteohub,2013-03-03 22:27:00,
2013-03-03 17:32:00,33.1,17.4,29.98,NE,54,3.0,11.0,52,0.00,,,0.00,meteohub,2013-03-03 22:32:00,
2013-03-03 17:37:00,32.7,17.1,29.98,NE,46,3.0,11.0,52,0.00,,,0.00,meteohub,2013-03-03 22:37:00,
2013-03-03 17:42:00,32.5,16.9,29.98,NE,51,4.0,10.0,52,0.00,,,0.00,meteohub,2013-03-03 22:42:00,
2013-03-03 17:47:00,32.2,17.1,29.99,North,355,3.0,9.0,53,0.00,,,0.00,meteohub,2013-03-03 22:47:00,
2013-03-03 17:52:00,31.8,17.1,29.99,North,10,6.0,9.0,54,0.00,,,0.00,meteohub,2013-03-03 22:52:00,
2013-03-03 17:57:00,31.5,16.7,29.99,North,5,3.0,8.0,54,0.00,,,0.00,meteohub,2013-03-03 22:57:00,
2013-03-03 18:02:00,31.3,17.1,29.99,NE,37,1.0,9.0,55,0.00,,,0.00,meteohub,2013-03-03 23:02:00,
2013-03-03 18:07:00,30.9,16.7,29.99,NNE,23,3.0,9.0,55,0.00,,,0.00,meteohub,2013-03-03 23:07:00,
2013-03-03 18:12:00,30.6,16.7,30.00,North,6,3.0,9.0,56,0.00,,,0.00,meteohub,2013-03-03 23:12:00,
2013-03-03 18:17:00,30.4,17.1,30.00,NNE,22,1.0,7.0,57,0.00,,,0.00,meteohub,2013-03-03 23:17:00,
2013-03-03 18:22:00,30.0,16.7,30.00,NNW,342,3.0,6.0,57,0.00,,,0.00,meteohub,2013-03-03 23:22:00,
2013-03-03 18:27:00,29.7,16.3,30.00,NNE,20,4.0,6.0,57,0.00,,,0.00,meteohub,2013-03-03 23:27:00,
2013-03-03 18:32:00,29.5,16.5,30.00,NW,324,5.0,7.0,58,0.00,,,0.00,meteohub,2013-03-03 23:32:00,
2013-03-03 18:37:00,29.1,16.2,30.00,NNW,348,2.0,7.0,58,0.00,,,0.00,meteohub,2013-03-03 23:37:00,
2013-03-03 18:42:00,28.9,16.3,30.01,NNE,26,1.0,7.0,59,0.00,,,0.00,meteohub,2013-03-03 23:42:00,
2013-03-03 18:47:00,28.8,16.2,30.01,NNE,24,1.0,7.0,59,0.00,,,0.00,meteohub,2013-03-03 23:47:00,
2013-03-03 18:52:00,28.6,16.5,30.01,NNE,30,0.0,8.0,60,0.00,,,0.00,meteohub,2013-03-03 23:52:00,
2013-03-03 18:57:00,28.2,16.2,30.01,NNE,30,1.0,8.0,60,0.00,,,0.00,meteohub,2013-03-03 23:57:00,
2013-03-03 19:02:00,28.0,16.0,30.01,ENE,58,2.0,8.0,60,0.00,,,0.00,meteohub,2013-03-04 00:02:00,
2013-03-03 19:07:00,27.7,16.0,30.01,NNW,334,2.0,9.0,61,0.00,,,0.00,meteohub,2013-03-04 00:07:00,
2013-03-03 19:13:00,27.5,15.8,30.02,ENE,74,1.0,9.0,61,0.00,,,0.00,meteohub,2013-03-04 00:13:00,
2013-03-03 19:18:00,27.3,15.6,30.02,North,0,2.0,9.0,61,0.00,,,0.00,meteohub,2013-03-04 00:18:00,
2013-03-03 19:23:00,27.1,15.4,30.03,NNW,330,0.0,9.0,61,0.00,,,0.00,meteohub,2013-03-04 00:23:00,
2013-03-03 19:28:00,27.0,15.3,30.03,NNE,24,3.0,7.0,61,0.00,,,0.00,meteohub,2013-03-04 00:28:00,
2013-03-03 19:33:00,26.8,15.1,30.03,NNW,342,4.0,9.0,61,0.00,,,0.00,meteohub,2013-03-04 00:33:00,
2013-03-03 19:38:00,26.8,15.4,30.03,ENE,61,3.0,11.0,62,0.00,,,0.00,meteohub,2013-03-04 00:38:00,
2013-03-03 19:43:00,26.4,15.1,30.03,North,6,2.0,11.0,62,0.00,,,0.00,meteohub,2013-03-04 00:43:00,
2013-03-03 19:48:00,26.4,15.1,30.03,East,96,2.0,11.0,62,0.00,,,0.00,meteohub,2013-03-04 00:48:00,
2013-03-03 19:53:00,26.2,15.1,30.03,NW,312,1.0,6.0,62,0.00,,,0.00,meteohub,2013-03-04 00:53:00,
2013-03-03 19:58:00,26.1,15.3,30.03,North,3,1.0,6.0,63,0.00,,,0.00,meteohub,2013-03-04 00:58:00,
2013-03-03 20:03:00,25.9,15.1,30.03,North,8,0.0,7.0,63,0.00,,,0.00,meteohub,2013-03-04 01:03:00,
2013-03-03 20:08:00,25.9,15.1,30.03,NNE,18,2.0,7.0,63,0.00,,,0.00,meteohub,2013-03-04 01:08:00,
2013-03-03 20:13:00,25.7,14.9,30.04,ENE,61,4.0,7.0,63,0.00,,,0.00,meteohub,2013-03-04 01:13:00,
2013-03-03 20:18:00,25.5,14.7,30.04,NNE,23,4.0,9.0,63,0.00,,,0.00,meteohub,2013-03-04 01:18:00,
2013-03-03 20:23:00,25.5,14.7,30.04,NNE,27,3.0,9.0,63,0.00,,,0.00,meteohub,2013-03-04 01:23:00,
2013-03-03 20:28:00,25.3,14.9,30.04,NE,41,3.0,9.0,64,0.00,,,0.00,meteohub,2013-03-04 01:28:00,
2013-03-03 20:33:00,25.2,14.7,30.04,NNE,25,2.0,7.0,64,0.00,,,0.00,meteohub,2013-03-04 01:33:00,
2013-03-03 20:38:00,25.0,14.5,30.04,NE,46,3.0,7.0,64,0.00,,,0.00,meteohub,2013-03-04 01:38:00,
2013-03-03 20:43:00,25.0,14.5,30.04,NE,53,0.0,7.0,64,0.00,,,0.00,meteohub,2013-03-04 01:43:00,
2013-03-03 20:48:00,24.8,14.4,30.04,NNE,20,0.0,5.0,64,0.00,,,0.00,meteohub,2013-03-04 01:48:00,
2013-03-03 20:53:00,24.8,14.4,30.04,ENE,61,1.0,7.0,64,0.00,,,0.00,meteohub,2013-03-04 01:53:00,
2013-03-03 20:58:00,24.6,14.2,30.04,ENE,72,4.0,7.0,64,0.00,,,0.00,meteohub,2013-03-04 01:58:00,
2013-03-03 21:03:00,24.6,14.2,30.05,East,79,2.0,7.0,64,0.00,,,0.00,meteohub,2013-03-04 02:03:00,
2013-03-03 21:08:00,24.6,14.2,30.05,NE,55,0.0,10.0,64,0.00,,,0.00,meteohub,2013-03-04 02:08:00,
2013-03-03 21:13:00,24.4,14.0,30.05,NE,44,2.0,10.0,64,0.00,,,0.00,meteohub,2013-03-04 02:13:00,
2013-03-03 21:18:00,24.4,14.0,30.05,NNE,30,3.0,5.0,64,0.00,,,0.00,meteohub,2013-03-04 02:18:00,
2013-03-03 21:23:00,24.4,14.0,30.05,NE,44,1.0,5.0,64,0.00,,,0.00,meteohub,2013-03-04 02:23:00,
2013-03-03 21:28:00,24.3,13.8,30.05,NNE,32,0.0,4.0,64,0.00,,,0.00,meteohub,2013-03-04 02:28:00,
2013-03-03 21:33:00,24.3,13.8,30.05,North,3,1.0,4.0,64,0.00,,,0.00,meteohub,2013-03-04 02:33:00,
2013-03-03 21:38:00,24.1,14.0,30.05,NNE,15,1.0,5.0,65,0.00,,,0.00,meteohub,2013-03-04 02:38:00,
2013-03-03 21:43:00,24.1,14.0,30.05,NNW,329,0.0,5.0,65,0.00,,,0.00,meteohub,2013-03-04 02:43:00,
2013-03-03 21:48:00,24.1,14.0,30.05,NNE,12,1.0,5.0,65,0.00,,,0.00,meteohub,2013-03-04 02:48:00,
2013-03-03 21:53:00,23.9,13.8,30.05,NW,324,3.0,5.0,65,0.00,,,0.00,meteohub,2013-03-04 02:53:00,
2013-03-03 21:58:00,23.7,13.6,30.05,North,358,2.0,5.0,65,0.00,,,0.00,meteohub,2013-03-04 02:58:00,
2013-03-03 22:03:00,23.7,14.0,30.05,NNW,338,0.0,3.0,66,0.00,,,0.00,meteohub,2013-03-04 03:03:00,
2013-03-03 22:08:00,23.7,14.0,30.05,NNE,23,2.0,6.0,66,0.00,,,0.00,meteohub,2013-03-04 03:08:00,
2013-03-03 22:13:00,23.7,14.0,30.05,NNW,333,1.0,6.0,66,0.00,,,0.00,meteohub,2013-03-04 03:13:00,
2013-03-03 22:18:00,23.7,14.0,30.06,ESE,106,0.0,6.0,66,0.00,,,0.00,meteohub,2013-03-04 03:18:00,
2013-03-03 22:23:00,23.5,13.8,30.05,NNE,13,1.0,6.0,66,0.00,,,0.00,meteohub,2013-03-04 03:23:00,
2013-03-03 22:28:00,23.5,13.8,30.05,NE,37,0.0,6.0,66,0.00,,,0.00,meteohub,2013-03-04 03:28:00,
2013-03-03 22:33:00,23.4,14.0,30.06,NNE,33,2.0,6.0,67,0.00,,,0.00,meteohub,2013-03-04 03:33:00,
2013-03-03 22:38:00,23.2,13.8,30.05,NNW,338,0.0,3.0,67,0.00,,,0.00,meteohub,2013-03-04 03:38:00,
2013-03-03 22:43:00,23.2,13.8,30.05,NNE,13,1.0,3.0,67,0.00,,,0.00,meteohub,2013-03-04 03:43:00,
2013-03-03 22:48:00,23.4,14.0,30.05,NNW,338,1.0,4.0,67,0.00,,,0.00,meteohub,2013-03-04 03:48:00,
2013-03-03 22:53:00,23.4,14.0,30.05,NE,46,0.0,4.0,67,0.00,,,0.00,meteohub,2013-03-04 03:53:00,
2013-03-03 22:58:00,23.2,13.8,30.05,ENE,61,0.0,4.0,67,0.00,,,0.00,meteohub,2013-03-04 03:58:00,
2013-03-03 23:03:00,23.2,13.8,30.05,NNW,331,0.0,4.0,67,0.00,,,0.00,meteohub,2013-03-04 04:03:00,
2013-03-03 23:08:00,23.0,13.6,30.05,NNE,13,0.0,3.0,67,0.00,,,0.00,meteohub,2013-03-04 04:08:00,
2013-03-03 23:13:00,23.2,13.5,30.05,NNW,338,0.0,3.0,66,0.00,,,0.00,meteohub,2013-03-04 04:13:00,
2013-03-03 23:18:00,23.0,13.3,30.05,NNE,20,0.0,3.0,66,0.00,,,0.00,meteohub,2013-03-04 04:18:00,
2013-03-03 23:23:00,22.8,13.5,30.05,North,353,0.0,3.0,67,0.00,,,0.00,meteohub,2013-03-04 04:23:00,
2013-03-03 23:28:00,22.6,13.6,30.05,NNE,13,0.0,3.0,68,0.00,,,0.00,meteohub,2013-03-04 04:28:00,
2013-03-03 23:33:00,22.5,13.5,30.05,ENE,69,0.0,2.0,68,0.00,,,0.00,meteohub,2013-03-04 04:33:00,
2013-03-03 23:38:00,22.5,13.1,30.05,NE,53,0.0,3.0,67,0.00,,,0.00,meteohub,2013-03-04 04:38:00,
2013-03-03 23:43:00,22.5,13.1,30.05,ENE,68,0.0,3.0,67,0.00,,,0.00,meteohub,2013-03-04 04:43:00,
2013-03-03 23:48:00,21.9,13.6,30.05,SW,221,0.0,3.0,70,0.00,,,0.00,meteohub,2013-03-04 04:48:00,
2013-03-03 23:53:00,21.2,13.6,30.05,SW,220,0.0,1.0,72,0.00,,,0.00,meteohub,2013-03-04 04:53:00,
2013-03-03 23:58:00,20.8,13.6,30.05,SSE,155,0.0,1.0,73,0.00,,,0.00,meteohub,2013-03-04 04:58:00,